Regional Weather Roundup
Issued by NWS

Home | Current Version | Previous Version | Graphics & Text | Print | Product List | Glossary On
Versions: 1 2 3 4 5 6 7 8 9 10 11 12 13 14 15 16 17 18 19 20 21 22 23 24 25 26 27 28 29 30 31 32 33 34 35 36 37 38 39 40 41 42 43 44 45 46 47 48 49 50
000
ASUS43 KIND 281259
RWRIN

WEATHER ROUNDUP FOR INDIANA
NATIONAL WEATHER SERVICE INDIANAPOLIS IN
900 AM EDT SAT MAY 28 2016

NOTE: "FAIR" INDICATES FEW OR NO CLOUDS BELOW 12,000 FEET WITH NO
SIGNIFICANT WEATHER AND/OR OBSTRUCTIONS TO VISIBILITY.

* - STATION DOES NOT REPORT WEATHER SUCH AS PRECIPITATION OR FOG.

+ - STATION NOT QUALITY CONTROLLED BY THE NATIONAL WEATHER SERVICE.
    USE DATA WITH CAUTION...ESPECIALLY DEWPOINT AND RELATIVE
    HUMIDITY OBSERVATIONS.

INZ001>003-010>013-019-020-281400-
NORTHWEST INDIANA

CITY           SKY/WX    TMP DP  RH WIND       PRES   REMARKS
GARY /AIRPORT/ PTSUNNY   75  70  83 S12G23    29.92R
RENSSELAER +   CLOUDY    72  66  83 S12G18    29.95S

$$

LMZ046-743>745-281400-
SOUTHERN LAKE MICHIGAN

STATION/POSITION TIME  TEMP    WIND        PRES    WAVE
                       AIR SEA DIR/SP/G            HT
                 (UTC) (F)     (DEG/KT/KT) (MB)    (FT)
BURNS HARBOR     1200   72     190/ 14/ 23 1013.2R
MICHIGAN CITY    1200   72     160/ 13/ 15   N/A
5NW MICH CITY    1210   68 58  200/ 12/ 17   N/A     2

$$

INZ004-005-014>016-021>024-281400-
NORTH CENTRAL INDIANA

CITY           SKY/WX    TMP DP  RH WIND       PRES   REMARKS
ELKHART        CLOUDY    75  68  78 S8        29.98R
GOSHEN         CLOUDY    75  64  68 S14       29.98R
SOUTH BEND     CLOUDY    74  63  68 S15       29.96R

$$

INZ006>009-017-018-025>027-281400-
NORTHEAST INDIANA

CITY           SKY/WX    TMP DP  RH WIND       PRES   REMARKS
ANGOLA *+        N/A     73  66  78 S6        30.01S
FORT WAYNE     CLOUDY    73  65  75 S10       30.03R

$$

INZ028-029-035-036-043>045-051>053-281400-
WEST CENTRAL INDIANA

CITY           SKY/WX    TMP DP  RH WIND       PRES   REMARKS
CRAWFORDSVL +  CLOUDY    72  65  79 S10       29.99S
GREENCASTLE +  CLOUDY    72  68  88 S9        30.01S
LAFAYETTE      CLOUDY    73  64  73 S7        29.96S
TERRE HAUTE    CLOUDY    73  65  75 S12       29.99R

$$

INZ030>032-037>040-046>048-054>057-064-065-281400-
CENTRAL INDIANA

CITY           SKY/WX    TMP DP  RH WIND       PRES   REMARKS
ANDERSON       MOSUNNY   73  64  73 S10       30.05
COLUMBUS       PTSUNNY   70  68  94 S9        30.04S
INDIANAPOLIS   CLOUDY    74  66  76 S12       30.01R
-EAGLE CREEK   CLOUDY    75  65  70 S10G18    30.01R
KOKOMO *+      CLOUDY    73  63  68 S14       30.00R
SHELBYVILLE    CLOUDY    73  65  75 S12       30.04R

$$

INZ033-034-041-042-049-050-058-059-281400-
EAST CENTRAL INDIANA

CITY           SKY/WX    TMP DP  RH WIND       PRES   REMARKS
MUNCIE         CLOUDY    76  65  68 S8        30.04R

$$

INZ060-061-067>069-081>083-085>088-281400-
SOUTHWEST INDIANA

CITY           SKY/WX    TMP DP  RH WIND       PRES   REMARKS
EVANSVILLE     CLOUDY    72  65  78 S7        30.02R
HUNTINGBURG *+ CLOUDY    73  64  73 S10G17    30.04R

$$

INZ062-063-066-070>080-084-089>092-281400-
SOUTH CENTRAL AND SOUTHEAST INDIANA

CITY           SKY/WX    TMP DP  RH WIND       PRES   REMARKS
BLOOMINGTON    CLOUDY    73  64  73 S8        30.03R
MADISON *+     CLOUDY    72  64  78 S8        30.09R
SEYMOUR +      CLOUDY    73  66  78 SE8       30.05R

$$




USA.gov is the U.S. government's official web portal to all federal, state and local government web resources and services.